Simultaneous Nadir Overpasses (SNOs) Predictions

Prediction of SNOs between METOP-A and NOAA-19 Satellite Orbit:

Table of predicted SNOs for the next 14.0 days since TLE Epoch: 7/31/2021
Index Date (METOP-A) Time (METOP-A) Lat,Lon (METOP-A) SZA (METOP-A ) Date (NOAA-19) Time (NOAA-19) Lat,Lon (NOAA-19) SZA (NOAA-19 ) Distance(km) Time Diff (sec)
1 08/08/2021 13:31:40 80.72, -17.41 64.73 08/08/2021 13:30:26 80.73, -17.33 64.73 1.68 74
2 08/08/2021 14:22:21 -80.72, 149.95 115.27 08/08/2021 14:21:32 -80.72, 149.78 115.27 3.16 49
3 08/08/2021 15:13:01 80.74, -42.57 64.76 08/08/2021 15:12:26 80.73, -42.72 64.75 2.81 35
4 08/08/2021 16:03:42 -80.74, 124.79 115.23 08/08/2021 16:03:31 -80.74, 124.74 115.23 1.03 11
5 08/08/2021 16:54:22 80.75, -67.73 64.80 08/08/2021 16:54:25 80.74, -67.76 64.79 0.87 3
6 08/08/2021 17:45:03 -80.75, 99.64 115.19 08/08/2021 17:45:30 -80.75, 99.70 115.19 1.16 27
7 08/08/2021 18:35:44 80.74, -93.22 64.81 08/08/2021 18:36:25 80.75, -93.16 64.82 1.45 41



Historial Predications of SNOs between METOP-A and NOAA-19
